This is the latest recevied weather packets stored in our database for station/object SV4FHR-2. If no packets are shown the sender has not sent any weather packets the latest 10 day(s).
| Time | Temp. | Humidity | Pressure | Rain* | Wind** | Luminosity | Snow |
|---|---|---|---|---|---|---|---|
| 1778086482 | 23.33° C | 53% | 1011 hPa | 0 mm | - | - | - |
| 1778086182 | 23.33° C | 52% | 1011.1 hPa | 0 mm | - | - | - |
| 1778085881 | 23.89° C | 52% | 1011 hPa | 0 mm | - | - | - |
| 1778085582 | 23.89° C | 52% | 1010.9 hPa | 0 mm | - | - | - |
| 1778085280 | 23.89° C | 51% | 1011.2 hPa | 0 mm | - | - | - |
| 1778084980 | 24.44° C | 50% | 1010.8 hPa | 0 mm | - | - | - |
| 1778084680 | 24.44° C | 48% | 1011.1 hPa | 0 mm | - | - | - |
| 1778084380 | 25° C | 47% | 1011 hPa | 0 mm | - | - | - |
| 1778084080 | 25° C | 46% | 1011 hPa | 0 mm | - | - | - |
| 1778083782 | 25.56° C | 45% | 1011.1 hPa | 0 mm | - | - | - |
| 1778083482 | 25.56° C | 44% | 1011.1 hPa | 0 mm | - | - | - |
| 1778083182 | 26.11° C | 43% | 1011.1 hPa | 0 mm | - | - | - |
| 1778082882 | 26.11° C | 44% | 1011.2 hPa | 0 mm | - | - | - |
| 1778082582 | 26.11° C | 43% | 1011 hPa | 0 mm | - | - | - |
| 1778082281 | 26.11° C | 43% | 1011.2 hPa | 0 mm | - | - | - |
| 1778081981 | 26.67° C | 43% | 1011.2 hPa | 0 mm | - | - | - |
| 1778081681 | 26.67° C | 43% | 1011.2 hPa | 0 mm | - | - | - |
| 1778081381 | 26.67° C | 43% | 1011.4 hPa | 0 mm | - | - | - |
| 1778081080 | 26.67° C | 44% | 1011.2 hPa | 0 mm | - | - | - |
| 1778080780 | 27.22° C | 44% | 1011.1 hPa | 0 mm | - | - | - |
| 1778080480 | 27.78° C | 47% | 1011.3 hPa | 0 mm | - | - | - |
| 1778002081 | 20.56° C | 63% | 1011.1 hPa | 0 mm | - | - | - |
| 1778001781 | 20.56° C | 61% | 1011.2 hPa | 0 mm | - | - | - |
| 1778001481 | 20.56° C | 61% | 1011.2 hPa | 0 mm | - | - | - |
| 1778001180 | 21.11° C | 60% | 1011.2 hPa | 0 mm | - | - | - |
* Rain latest hour (hover to see other rain measurements)
** Current wind speed in m/s (hover to see current wind gust speed)